DELTA 1 DEB, 49109

Orbit data source: Space-Track

DELTA 1 DEB, 49109 is space debris in LEO originally from a launch on Thu, 14 Jul 1977 UTC launched from the Air Force Eastern Test Range (AFETR). Debris objects in space refer to the collection of defunct objects orbiting the Earth. Examples of debris include non-operational satellites, rocket bodies, and fragments generated from explosions, collisions, or faulty payload assembly.

Loading next visibility...
Identifier
49109, 1977-065GR
Orbit
LEO
Country
Flag of USUS
Related business
Manufacturer
Unknown
Mission
Spacecraft
Bus & Motor
Unknown
Mass
Unknown
Launch date (UTC)
1977-07-14 (49 years ago)
Launch vehicle
Unknown
Launch site
Air Force Eastern Test Range (AFETR)
Object type
Payload
Rocket body
Debris
Shape & HBR
Unknown shape, 0.1 m
Radar Cross Section
Medium (>0.1 m² and <1 m²)

Expand to show TLE details & history
Last TLE update: 7 hours ago

TLE from 7 hours ago
0 DELTA 1 DEB
1 49109U 77065GR  26263.10750720  .00000523  00000-0  10507-3 0  9995
2 49109  29.0618 278.9041 0653344  61.1155 305.3379 13.68671453 25850
Epoch: 2026-09-20T02:34Z
TLE epoch observation values (Epoch: 2026-09-20T02:34:48.622Z)
Latitude
0.00001°
Longitude
-118.80491°
Altitude
746.018 km
Speed
7.613 km/s
True Right ascension
18h 35m 36s
True Declination
0° 00' 00"
Sunlit
Object was in daylight at epoch
Visualization orbit readout
Latitude
Unknown
Longitude
Unknown
Altitude
Unknown
Speed
Unknown
Apparent Right ascension
Unknown
Apparent Declination
Unknown
Sunlit
N/A
Visualization observer readout
Local Sidereal Time
02:40:29
Azimuth
Unknown
Elevation
Unknown
Doppler factor
Unknown
Orbital elements
Apogee altitude
1,490.813 km
Perigee altitude
525.646 km
Semi-major axis
7,386.367 km
Eccentricity
0.06533
Inclination
29.0618°
RAAN
278.9041°
Arg. of periapsis
61.1155°
True anomaly
298.94176°
Mean anomaly
305.3379°
Eccentric anomaly
302.1692°
Mean motion
3.41898 °/min
Orbital period
105.29 mins
BSTAR
0.00010507
Loading maneuver chart data...
Computing Atmospheric mass density...
Loading historical data...
Loading historical data...
Loading historical data...
Loading historical data...
Loading historical data...
Loading historical data...
Loading historical data...

Documentation

Showing up to 5 results
|